KA8UPW-1 Weather Reports


Display with metric or nautical units.
time (UTC)temp
F
wind
direction
speed
MPH
gust
MPH
rain 1hr
in
rain 24hr
in
rain mn
in
humidity
%
barometer
mb
20260903064720 78 0 0.0 0.0 0.00 0.00 0.00 84 1014.3
20260903063604 78 0 0.0 0.0 0.00 0.00 0.00 84 1014.4
20260903062704 78 0 0.0 0.0 0.00 0.00 0.00 83 1014.4
20260903061804 79 0 0.0 0.0 0.00 0.00 0.00 83 1014.4
20260903060903 79 0 0.0 0.0 0.00 0.00 0.00 83 1014.4
20260903060004 79 0 0.0 0.0 0.00 0.00 0.00 83 1014.4
20260903055404 79 0 0.0 0.0 0.00 0.00 0.00 82 1014.4
20260903054503 79 0 0.0 0.0 0.00 0.00 0.00 82 1014.4
20260903053818 80 0 0.0 0.0 0.00 0.00 0.00 82 1014.4
20260903052703 80 0 0.0 0.0 0.00 0.00 0.00 82 1014.3
20260903051803 80 0 0.0 0.0 0.00 0.00 0.00 82 1014.2
20260903050903 80 0 0.0 0.0 0.00 0.00 0.00 81 1014.2
20260903050003 80 0 0.0 0.0 0.00 0.00 0.00 81 1014.1
20260903045403 80 0 0.0 0.0 0.00 0.00 0.00 81 1014.1
20260903044503 80 0 0.0 0.0 0.00 0.00 0.00 81 1014.1
20260903043603 80 0 0.0 0.0 0.00 0.00 0.00 80 1014.1
20260903042703 80 0 0.0 0.0 0.00 0.00 0.00 80 1014.0
20260903041803 81 0 0.0 0.0 0.00 0.00 0.00 80 1013.9
20260903040903 81 0 0.0 0.0 0.00 0.00 0.00 79 1013.9
20260903040010 81 0 0.0 0.0 0.00 0.00 0.00 79 1013.7
20260903035403 81 0 0.0 0.0 0.00 0.00 0.00 79 1013.7
20260903034722 81 0 0.0 0.0 0.00 0.00 0.00 79 1013.5
20260903033604 81 0 0.0 0.0 0.00 0.00 0.00 79 1013.5
20260903032704 81 0 0.0 0.0 0.00 0.00 0.00 79 1013.6
20260903031803 82 0 0.0 0.0 0.00 0.00 0.00 79 1013.8
20260903030904 82 0 0.0 0.0 0.00 0.00 0.00 78 1013.8
20260903030004 82 0 0.0 0.0 0.00 0.00 0.00 78 1014.1
20260903025403 82 0 0.0 0.0 0.00 0.00 0.00 78 1014.0
20260903024503 82 0 0.0 0.0 0.00 0.00 0.00 77 1014.3
20260903023603 82 0 0.0 0.0 0.00 0.00 0.00 77 1014.4
20260903022703 82 0 0.0 0.0 0.00 0.00 0.00 77 1014.4
20260903021803 82 0 0.0 0.0 0.00 0.00 0.00 77 1014.5
20260903021117 82 0 0.0 0.0 0.00 0.00 0.00 77 1014.4
20260903020219 82 0 0.0 0.0 0.00 0.00 0.00 76 1014.4
20260903015403 82 0 0.0 0.0 0.00 0.00 0.00 76 1014.4
20260903014504 82 0 0.0 0.0 0.00 0.00 0.00 76 1014.4
20260903013603 82 0 0.0 0.0 0.00 0.00 0.00 76 1014.3
20260903012703 82 0 0.0 0.0 0.00 0.00 0.00 76 1014.3
20260903011803 82 0 0.0 0.0 0.00 0.00 0.00 76 1014.3
20260903010904 83 0 0.0 0.0 0.00 0.00 0.00 75 1014.3
20260903010004 83 0 0.0 0.0 0.00 0.00 0.00 74 1014.2
20260903005404 83 0 0.0 0.0 0.00 0.00 0.00 74 1014.1
20260903004504 83 0 0.0 0.0 0.00 0.00 0.00 74 1013.9
20260903003604 84 0 0.0 0.0 0.00 0.00 0.00 74 1013.9
20260903002703 84 0 0.0 0.0 0.00 0.00 0.00 73 1013.8
20260903002021 84 0 0.0 0.0 0.00 0.00 0.00 73 1013.8
20260903000903 84 0 0.0 0.0 0.00 0.00 0.00 72 1013.9
20260903000004 85 0 0.0 0.0 0.00 0.00 0.00 72 1013.9
20260902235403 85 0 0.0 0.0 0.00 0.00 0.00 71 1013.9
20260902234503 86 0 0.0 0.0 0.00 0.00 0.00 70 1013.8
20260902233604 86 0 0.0 0.0 0.00 0.00 0.00 69 1013.8
20260902232703 87 0 0.0 0.0 0.00 0.00 0.00 68 1013.8
20260902231803 88 0 0.0 0.0 0.00 0.00 0.00 67 1013.8
20260902230904 88 0 0.0 0.0 0.00 0.00 0.00 66 1013.7
20260902230003 89 0 0.0 0.0 0.00 0.00 0.00 65 1013.8
20260902225403 89 0 0.0 0.0 0.00 0.00 0.00 65 1013.8
20260902224720 89 0 0.0 0.0 0.00 0.00 0.00 64 1013.8
20260902223603 90 0 0.0 0.0 0.00 0.00 0.00 63 1013.8
20260902222703 90 0 0.0 0.0 0.00 0.00 0.00 65 1013.8
20260902222017 90 0 0.0 0.0 0.00 0.00 0.00 64 1013.9
20260902220904 90 0 0.0 0.0 0.00 0.00 0.00 65 1013.9
20260902220004 90 0 0.0 0.0 0.00 0.00 0.00 65 1013.9
20260902215403 90 0 0.0 0.0 0.00 0.00 0.00 66 1013.8
20260902214721 90 0 0.0 0.0 0.00 0.00 0.00 65 1013.9
20260902213603 90 0 0.0 0.0 0.00 0.00 0.00 66 1013.9
20260902212704 91 0 0.0 0.0 0.00 0.00 0.00 63 1013.9
20260902211804 91 0 0.0 0.0 0.00 0.00 0.00 64 1013.9
20260902211120 91 0 0.0 0.0 0.00 0.00 0.00 64 1013.9
20260902210004 90 0 0.0 0.0 0.00 0.00 0.00 66 1014.2
20260902205404 90 0 0.0 0.0 0.00 0.00 0.00 65 1014.2
20260902204503 91 0 0.0 0.0 0.00 0.00 0.00 65 1014.3
20260902203603 91 0 0.0 0.0 0.00 0.00 0.00 63 1014.4
20260902202921 92 0 0.0 0.0 0.00 0.00 0.00 60 1014.5
20260902201803 92 0 0.0 0.0 0.00 0.00 0.00 64 1014.5
20260902200904 92 0 0.0 0.0 0.00 0.00 0.00 62 1014.6
20260902200003 92 0 0.0 0.0 0.00 0.00 0.00 63 1014.7
20260902195403 92 0 0.0 0.0 0.00 0.00 0.00 63 1014.8
20260902194722 92 0 0.0 0.0 0.00 0.00 0.00 63 1014.9
20260902193603 91 0 0.0 0.0 0.00 0.00 0.00 63 1014.9
20260902192703 91 0 0.0 0.0 0.00 0.00 0.00 63 1015.1
20260902191803 91 0 0.0 0.0 0.00 0.00 0.00 61 1015.2
20260902190903 91 0 0.0 0.0 0.00 0.00 0.00 64 1015.3
20260902190003 91 0 0.0 0.0 0.00 0.00 0.00 63 1015.3
20260902185403 91 0 0.0 0.0 0.00 0.00 0.00 63 1015.3
20260902184503 90 0 0.0 0.0 0.00 0.00 0.00 65 1015.4
20260902183639 90 0 0.0 0.0 0.00 0.00 0.00 65 1015.4
20260902182704 90 0 0.0 0.0 0.00 0.00 0.00 65 1015.5
20260902181803 90 0 0.0 0.0 0.00 0.00 0.00 70 1015.6
20260902180903 90 0 0.0 0.0 0.00 0.00 0.00 71 1015.7
20260902180005 90 0 0.0 0.0 0.00 0.00 0.00 72 1015.8
20260902175404 89 0 0.0 0.0 0.00 0.00 0.00 70 1015.9
20260902174503 89 0 0.0 0.0 0.00 0.00 0.00 73 1015.9
20260902173603 89 0 0.0 0.0 0.00 0.00 0.00 71 1016.0
20260902172918 88 0 0.0 0.0 0.00 0.00 0.00 70 1016.3
20260902171803 88 0 0.0 0.0 0.00 0.00 0.00 73 1016.4
20260902170903 88 0 0.0 0.0 0.00 0.00 0.00 72 1016.4
20260902170004 87 0 0.0 0.0 0.00 0.00 0.00 73 1016.5
20260902165403 88 0 0.0 0.0 0.00 0.00 0.00 71 1016.5
20260902164503 88 0 0.0 0.0 0.00 0.00 0.00 72 1016.5
20260902163603 87 0 0.0 0.0 0.00 0.00 0.00 73 1016.6
20260902162703 87 0 0.0 0.0 0.00 0.00 0.00 73 1016.7
20260902161803 87 0 0.0 0.0 0.00 0.00 0.00 73 1016.6
20260902160903 86 0 0.0 0.0 0.00 0.00 0.00 74 1016.6
20260902160005 86 0 0.0 0.0 0.00 0.00 0.00 74 1016.6
20260902155403 86 0 0.0 0.0 0.00 0.00 0.00 74 1016.6
20260902154503 85 0 0.0 0.0 0.00 0.00 0.00 76 1016.6
20260902153603 84 0 0.0 0.0 0.00 0.00 0.00 75 1016.5
20260902152703 85 0 0.0 0.0 0.00 0.00 0.00 75 1016.5
20260902152021 84 0 0.0 0.0 0.00 0.00 0.00 75 1016.6
20260902151119 84 0 0.0 0.0 0.00 0.00 0.00 75 1016.5
20260902150004 84 0 0.0 0.0 0.00 0.00 0.00 77 1016.6
20260902145618 83 0 0.0 0.0 0.00 0.00 0.00 77 1016.6
20260902144504 83 0 0.0 0.0 0.00 0.00 0.00 77 1016.5
20260902143817 83 0 0.0 0.0 0.00 0.00 0.00 78 1016.5
20260902142705 82 0 0.0 0.0 0.00 0.00 0.00 79 1016.5
20260902142017 81 0 0.0 0.0 0.00 0.00 0.00 80 1016.5
20260902140904 81 0 0.0 0.0 0.00 0.00 0.00 81 1016.3
20260902140004 80 0 0.0 0.0 0.00 0.00 0.00 81 1016.4
20260902135618 80 0 0.0 0.0 0.00 0.00 0.00 82 1016.3
20260902134721 79 0 0.0 0.0 0.00 0.00 0.00 83 1016.4
20260902133603 78 0 0.0 0.0 0.00 0.03 0.00 85 1016.4
20260902132703 78 0 0.0 0.0 0.00 0.12 0.00 85 1016.5
20260902131803 78 0 0.0 0.0 0.00 0.12 0.00 86 1016.4
20260902130903 77 0 0.0 0.0 0.00 0.14 0.00 87 1016.5
20260902130217 77 0 0.0 0.0 0.00 0.14 0.00 87 1016.5
20260902125403 77 0 0.0 0.0 0.00 0.14 0.00 87 1016.4
20260902124504 76 0 0.0 0.0 0.00 0.14 0.00 88 1016.2
20260902123604 76 0 0.0 0.0 0.00 0.14 0.00 88 1016.3
20260902122703 76 0 0.0 0.0 0.00 0.14 0.00 89 1016.3
20260902121804 75 0 0.0 0.0 0.00 0.14 0.00 89 1016.1
20260902120903 75 0 0.0 0.0 0.00 0.14 0.00 90 1016.2
20260902120218 74 0 0.0 0.0 0.00 0.14 0.00 90 1016.2
20260902115403 74 0 0.0 0.0 0.00 0.14 0.00 90 1016.2
20260902114503 74 0 0.0 0.0 0.00 0.14 0.00 91 1016.0
20260902113603 74 0 0.0 0.0 0.00 0.14 0.00 90 1016.0
20260902112704 74 0 0.0 0.0 0.00 0.14 0.00 90 1015.9
20260902112019 74 0 0.0 0.0 0.00 0.14 0.00 90 1015.8
20260902110903 74 0 0.0 0.0 0.00 0.14 0.00 91 1015.7
20260902110005 74 0 0.0 0.0 0.00 0.14 0.00 91 1015.6
20260902105620 74 0 0.0 0.0 0.00 0.14 0.00 91 1015.5
20260902104503 74 0 0.0 0.0 0.00 0.14 0.00 91 1015.5
20260902103603 74 0 0.0 0.0 0.00 0.14 0.00 92 1015.5
20260902102704 74 0 0.0 0.0 0.00 0.14 0.00 92 1015.5
20260902101803 74 0 0.0 0.0 0.00 0.14 0.00 92 1015.5
20260902100903 74 0 0.0 0.0 0.00 0.14 0.00 92 1015.5
20260902100003 74 0 0.0 0.0 0.00 0.14 0.00 92 1015.5
20260902095621 74 0 0.0 0.0 0.00 0.14 0.00 92 1015.5
20260902094503 74 0 0.0 0.0 0.00 0.14 0.00 92 1015.6
20260902093603 74 0 0.0 0.0 0.00 0.14 0.00 92 1015.6
20260902092704 74 0 0.0 0.0 0.00 0.14 0.00 91 1015.7
20260902091804 74 0 0.0 0.0 0.00 0.14 0.00 91 1015.7
20260902091118 74 0 0.0 0.0 0.00 0.14 0.00 91 1015.6
20260902090004 74 0 0.0 0.0 0.00 0.14 0.00 91 1015.5
20260902085622 74 0 0.0 0.0 0.00 0.14 0.00 91 1015.4
20260902084503 74 0 0.0 0.0 0.00 0.14 0.00 92 1015.5
20260902083604 74 0 0.0 0.0 0.00 0.14 0.00 92 1015.4
20260902082703 74 0 0.0 0.0 0.00 0.14 0.00 92 1015.5
20260902081804 74 0 0.0 0.0 0.00 0.14 0.00 91 1015.5
20260902080904 74 0 0.0 0.0 0.00 0.14 0.00 90 1015.5
20260902080003 75 0 0.0 0.0 0.00 0.14 0.00 91 1015.5
20260902075404 75 0 0.0 0.0 0.00 0.14 0.00 91 1015.4
20260902074503 75 0 0.0 0.0 0.00 0.14 0.00 91 1015.4
20260902073603 75 0 0.0 0.0 0.00 0.14 0.00 91 1015.4
20260902072704 75 0 0.0 0.0 0.00 0.14 0.00 91 1015.3
20260902072021 75 0 0.0 0.0 0.00 0.14 0.00 91 1015.4
20260902070904 74 0 0.0 0.0 0.00 0.14 0.00 91 1015.4
20260902070221 75 0 0.0 0.0 0.00 0.14 0.00 91 1015.3
20260902065403 75 0 0.0 0.0 0.00 0.14 0.00 91 1015.4